DELTA 1 DEB, 42561

Orbit data source: Space-Track

DELTA 1 DEB, 42561 is space debris in SSO originally from a launch on Sun, 23 Jul 1972 UTC launched from the Air Force Western Test Range (AFWTR). Debris objects in space refer to the collection of defunct objects orbiting the Earth. Examples of debris include non-operational satellites, rocket bodies, and fragments generated from explosions, collisions, or faulty payload assembly.

Loading next visibility...
Identifier
42561, 1972-058JU
Orbit
SSO
Country
Flag of USUS
Related business
Manufacturer
Unknown
Mission
Spacecraft
Bus & Motor
Unknown
Mass
Unknown
Launch date (UTC)
1972-07-23 (53 years ago)
Launch vehicle
Unknown
Launch site
Air Force Western Test Range (AFWTR)
Object type
Payload
Rocket body
Debris
Shape & HBR
Unknown shape, 0.1 m
Radar Cross Section
Small (<0.1 m²)

Expand to show TLE details & history
Last TLE update: 1 week ago

TLE from 1 week ago
0 DELTA 1 DEB
1 42561U 72058JU  25293.47436090  .00001020  00000-0  18153-2 0  9997
2 42561  98.8769 112.1146 0470018 285.7996  95.0616 13.08322754567492
Epoch: 2025-10-20T11:23Z
TLE epoch observation values (Epoch: 2025-10-20T11:23:04.781Z)
Latitude
25.88449°
Longitude
-92.15606°
Altitude
1,280.771 km
Speed
7.195 km/s
True Right ascension
07h 11m 09s
True Declination
25° 45' 32"
Sunlit
Object was in daylight at epoch
Visualization orbit readout
Latitude
Unknown
Longitude
Unknown
Altitude
Unknown
Speed
Unknown
Apparent Right ascension
Unknown
Apparent Declination
Unknown
Sunlit
N/A
Visualization observer readout
Local Sidereal Time
21:19:55
Azimuth
Unknown
Elevation
Unknown
Doppler factor
Unknown
Orbital elements
Apogee altitude
1,584.416 km
Perigee altitude
869.509 km
Semi-major axis
7,605.1 km
Eccentricity
0.047
Inclination
98.8769°
RAAN
112.1146°
Arg. of periapsis
285.7996°
True anomaly
100.39124°
Mean anomaly
95.0616°
Eccentric anomaly
97.73013°
Mean motion
3.27255 °/min
Orbital period
110.01 mins
BSTAR
0.0018153
Loading maneuver chart data...
Computing Atmospheric mass density...
Loading historical data...
Loading historical data...
Loading historical data...
Loading historical data...
Loading historical data...
Loading historical data...
Loading historical data...

Documentation

Showing up to 5 results
|